Tracking 19706 objects as of 15-Jun-2019
HD Live streaming from Space Station
objects crossing your sky now

THORAD AGENA D DEB

Track THORAD AGENA D DEB now!
10-day predictions


NORAD ID: 4710
Int'l Code: 1970-025BY
Perigee: 1,057.4 km
Apogee: 1,066.0 km
Inclination: 100.0 °
Period: 106.3 minutes
Semi major axis: 7432 km
RCS: 0.052 m2 (small)
Launch date: April 8, 1970
Source: United States (US)
Launch site: AIR FORCE WESTERN TEST RANGE (AFWTR)

Note: This is SATELLITE DEBRIS
aabbcc
Your satellite tracking list
Your tracking list is empty




NASA's NSSDC Master Catalog

Two Line Element Set (TLE):
1  4710U 70025BY  19166.03033774  .00000098  00000-0  20907-3 0  9994
2  4710  99.9523  91.2630 0005778  30.2933  34.1715 13.54835505427282
Source of the keplerian elements: AFSPC